Home   Weather   Alofi   Past weeks

Flag for Niue Past Weather in Alofi, Niue — Yesterday and Last 2 Weeks

Now
72 °F

Mild.


Feels Like: 67 °F
Forecast: 73 / 80 °F
Wind: 2 mph from Southeast

Location: Alofi / Niue

Current Time: Oct 1, 2016 at 8:08:26 AM

Latest Report: Oct 1, 2016 at 7:00 AM


Visibility: N/A

Pressure: 29.95 "Hg

Humidity: 94%

Dew Point: 70 °F

Location of AlofiLocation

Past Weather in Alofi — Graph

°F

Alofi Temperature Yesterday

Maximum temperature yesterday: 82 °F (at 11:00 AM)
Minimum temperature yesterday: 70 °F (at 4:00 AM)
Average temperature yesterday: 76 °F

High & Low Weather Summary for the Past Weeks

 TemperatureHumidityPressure
High86 °F (Sep 25, 2:00 PM)100% (Sep 18, 7:00 AM)30.04 "Hg (Sep 18, 7:00 AM)
Low61 °F (Sep 22, 5:00 AM)25% (Sep 20, 7:00 AM)29.80 "Hg (Sep 20, 2:00 PM)
Average75 °F86%29.91 "Hg
* Reported Sep 16 6:00 AM — Oct 1 6:00 AM, Alofi, Weather by CustomWeather, © 2016

Note: Actual official high and low records may vary slightly from our data, if they occured in-between our weather recording intervals... More about our weather records

Advertising

Alofi Weather History for the Previous 24 Hours

Scroll right to see more
 ConditionsComfort  
Time TempWeatherWind HumidityBarometerVisibility
6:00 AM
Sat, Oct 1
70 °FMild.1 mph94%29.92 "HgN/A
5:00 AM72 °FMild.6 mph88%29.92 "HgN/A
4:00 AM72 °FMild.6 mph88%29.92 "HgN/A
3:00 AM73 °FMild.7 mph89%29.92 "HgN/A
2:00 AM73 °FMild.5 mph89%29.95 "HgN/A
1:00 AM73 °FMild.1 mph89%29.95 "HgN/A
12:00 AM73 °FMild.5 mph89%29.95 "HgN/A
11:00 PM
Fri, Sep 30
73 °FMild.6 mph89%29.95 "HgN/A
10:00 PM75 °FMild.6 mph83%29.95 "HgN/A
9:00 PM75 °FMild.9 mph89%29.95 "HgN/A
8:00 PM77 °FWarm.10 mph83%29.95 "HgN/A
7:00 PM77 °FWarm.8 mph89%29.92 "HgN/A
6:00 PM77 °FWarm.10 mph89%29.92 "HgN/A
5:00 PM79 °FWarm.13 mph84%29.89 "HgN/A
4:00 PM81 °FWarm.10 mph79%29.89 "HgN/A
3:00 PM81 °FBroken clouds.12 mph79%29.89 "HgN/A
2:00 PM82 °FBroken clouds.12 mph74%29.89 "HgN/A
1:00 PM82 °FBroken clouds.10 mph79%29.92 "HgN/A
12:00 PM82 °FScattered clouds.12 mph74%29.92 "HgN/A
11:00 AM82 °FBroken clouds.13 mph84%29.95 "HgN/A
10:00 AM81 °FBroken clouds.10 mph84%29.95 "HgN/A
9:00 AM81 °FBroken clouds.12 mph84%29.95 "HgN/A
8:00 AM77 °FBroken clouds.6 mph94%29.95 "HgN/A
Weather by CustomWeather, © 2016

See weather overviewHow to use our weather pages